TimeCAT,TemperatureF,Dew PointF,Humidity,Sea Level PressureIn,VisibilityMPH,Wind Direction,Wind SpeedMPH,Gust SpeedMPH,PrecipitationIn,Events,Conditions,WindDirDegrees,DateUTC
12:00 AM,77.0,64.4,65,30.04,-9999.0,SSE,3.5,-,N/A,,Clear,150,2013-01-29 22:00:00
1:00 AM,75.2,64.4,69,30.04,-9999.0,ESE,3.5,-,N/A,,Clear,110,2013-01-29 23:00:00
2:00 AM,75.2,62.6,65,30.04,-9999.0,SE,6.9,-,N/A,,Clear,130,2013-01-30 00:00:00
3:00 AM,73.4,64.4,73,30.01,-9999.0,SE,5.8,-,N/A,,Clear,130,2013-01-30 01:00:00
4:00 AM,71.6,64.4,78,30.01,-9999.0,ESE,5.8,-,N/A,,Clear,120,2013-01-30 02:00:00
5:00 AM,71.6,62.6,73,30.01,-9999.0,East,8.1,-,N/A,,Clear,90,2013-01-30 03:00:00
6:00 AM,69.8,62.6,78,30.01,-9999.0,East,8.1,-,N/A,,Clear,100,2013-01-30 04:00:00
7:00 AM,71.6,62.6,73,30.04,-9999.0,East,9.2,-,N/A,,Clear,80,2013-01-30 05:00:00
8:00 AM,75,63,58,,6,East,13.8,,,,,80,2013-01-30 06:00:00
8:00 AM,75.2,62.6,65,30.06,-9999.0,East,13.8,-,N/A,,Clear,80,2013-01-30 06:00:00
9:00 AM,78.8,62.6,57,30.06,-9999.0,ENE,16.1,-,N/A,,Clear,60,2013-01-30 07:00:00
10:00 AM,82.4,62.6,51,30.06,-9999.0,ENE,9.2,-,N/A,,Clear,70,2013-01-30 08:00:00
11:00 AM,86.0,64.4,48,30.04,-9999.0,NE,9.2,-,N/A,,Clear,40,2013-01-30 09:00:00
12:00 PM,89.6,64.4,43,30.04,6.2,NW,6.9,-,N/A,,Partly Cloudy,320,2013-01-30 10:00:00
1:00 PM,91.4,66.2,43,30.01,6.2,WSW,3.5,-,N/A,,Partly Cloudy,250,2013-01-30 11:00:00
2:00 PM,92,64,29,,6,WNW,4.6,,,,Partly Cloudy,300,2013-01-30 12:00:00
2:00 PM,91.4,64.4,41,29.98,6.2,WNW,4.6,-,N/A,,Scattered Clouds,300,2013-01-30 12:00:00
3:00 PM,93.2,64.4,38,29.95,6.2,South,9.2,-,N/A,,Scattered Clouds,170,2013-01-30 13:00:00
4:00 PM,91.4,62.6,38,29.92,6.2,South,4.6,-,N/A,,Partly Cloudy,170,2013-01-30 14:00:00
5:00 PM,93.2,64.4,38,29.92,6.2,SSE,10.4,-,N/A,,Partly Cloudy,150,2013-01-30 15:00:00
6:00 PM,91.4,64.4,41,29.89,6.2,SSE,9.2,-,N/A,,Partly Cloudy,150,2013-01-30 16:00:00
7:00 PM,87.8,62.6,43,29.92,-9999.0,SE,8.1,-,N/A,,Clear,130,2013-01-30 17:00:00
8:00 PM,84.2,64.4,51,29.92,-9999.0,SE,8.1,-,N/A,,Clear,130,2013-01-30 18:00:00
9:00 PM,82.4,62.6,51,29.92,-9999.0,ESE,4.6,-,N/A,,Clear,120,2013-01-30 19:00:00
10:00 PM,82.4,62.6,51,29.95,-9999.0,North,-9999.0,-,N/A,,Clear,0,2013-01-30 20:00:00